• In Deutschland
  • Länderverzeichnis
  • Für 7 Tage
  • Wassertemperatur
  • Satellitenkarten
  • Wetterkarte
  • Widgets
  • user-avatar
    Anmelden

    Stündliche Wetter Apenburg

    Heute, 24 Oktober, Dienstag

    Zeit Temperatur Niederschläge Wind Luftdruck Luftfeuchtigkeit
    00:00 +10°C° 0 mm 2 m/S 761 mmHg 95%
    01:00 +10°C° 0 mm 2 m/S 762 mmHg 95%
    02:00 +11°C° 0 mm 1 m/S 762 mmHg 95%
    03:00 +11°C° 0 mm 1 m/S 762 mmHg 95%
    04:00 +11°C° 0 mm 1 m/S 762 mmHg 95%
    05:00 +10°C° 0 mm 1 m/S 762 mmHg 95%
    06:00 +10°C° 0 mm 1 m/S 763 mmHg 96%
    07:00 +9°C° 0 mm 1 m/S 763 mmHg 96%
    08:00 +10°C° 0 mm 2 m/S 763 mmHg 92%
    09:00 +12°C° 0 mm 2 m/S 763 mmHg 89%
    10:00 +12°C° 0 mm 3 m/S 763 mmHg 85%
    11:00 +13°C° 0 mm 3 m/S 762 mmHg 83%
    12:00 +13°C° 0 mm 3 m/S 762 mmHg 81%
    13:00 +14°C° 0 mm 3 m/S 762 mmHg 78%
    14:00 +14°C° 0,1 mm 3 m/S 762 mmHg 81%
    15:00 +14°C° 0,1 mm 3 m/S 762 mmHg 83%
    16:00 +13°C° 0,1 mm 3 m/S 761 mmHg 86%
    17:00 +13°C° 0,3 mm 3 m/S 761 mmHg 88%
    18:00 +13°C° 0,3 mm 3 m/S 761 mmHg 89%
    19:00 +13°C° 0,3 mm 4 m/S 761 mmHg 91%
    20:00 +13°C° 0,1 mm 4 m/S 761 mmHg 91%
    21:00 +13°C° 0,1 mm 4 m/S 761 mmHg 92%
    22:00 +13°C° 0,1 mm 4 m/S 761 mmHg 92%
    23:00 +14°C° 0,3 mm 4 m/S 761 mmHg 92%

    Morgen, 25 Oktober, Mittwoch

    Zeit Temperatur Niederschläge Wind Luftdruck Luftfeuchtigkeit
    00:00 +14°C° 0,3 mm 4 m/S 760 mmHg 92%
    01:00 +14°C° 0,3 mm 4 m/S 760 mmHg 92%
    02:00 +14°C° 0,1 mm 4 m/S 760 mmHg 92%
    03:00 +15°C° 0,1 mm 5 m/S 760 mmHg 91%
    04:00 +15°C° 0,1 mm 5 m/S 760 mmHg 91%
    05:00 +15°C° 0 mm 5 m/S 760 mmHg 90%
    06:00 +15°C° 0 mm 5 m/S 760 mmHg 89%
    07:00 +15°C° 0 mm 5 m/S 760 mmHg 88%
    08:00 +15°C° 0,1 mm 5 m/S 760 mmHg 87%
    09:00 +15°C° 0,1 mm 6 m/S 760 mmHg 85%
    10:00 +16°C° 0,1 mm 6 m/S 760 mmHg 83%
    11:00 +16°C° 0,1 mm 6 m/S 760 mmHg 82%
    12:00 +16°C° 0,1 mm 7 m/S 760 mmHg 80%
    13:00 +16°C° 0,1 mm 7 m/S 760 mmHg 78%
    14:00 +16°C° 0,1 mm 6 m/S 760 mmHg 80%
    15:00 +15°C° 0,1 mm 6 m/S 761 mmHg 82%
    16:00 +15°C° 0,1 mm 5 m/S 761 mmHg 84%
    17:00 +14°C° 0,1 mm 4 m/S 762 mmHg 87%
    18:00 +14°C° 0,1 mm 4 m/S 762 mmHg 89%
    19:00 +13°C° 0,1 mm 3 m/S 763 mmHg 92%
    20:00 +12°C° 0 mm 3 m/S 763 mmHg 93%
    21:00 +13°C° 0 mm 2 m/S 763 mmHg 94%
    22:00 +12°C° 0 mm 2 m/S 764 mmHg 96%
    23:00 +12°C° 0 mm 2 m/S 764 mmHg 96%

    übermorgen, 26 Oktober, Donnerstag

    Zeit Temperatur Niederschläge Wind Luftdruck Luftfeuchtigkeit
    00:00 +12°C° 0 mm 2 m/S 764 mmHg 96%
    01:00 +12°C° 0 mm 2 m/S 764 mmHg 97%
    02:00 +12°C° 0 mm 2 m/S 764 mmHg 97%
    03:00 +12°C° 0 mm 2 m/S 764 mmHg 96%
    04:00 +12°C° 0 mm 2 m/S 764 mmHg 96%
    05:00 +10°C° 0 mm 2 m/S 764 mmHg 96%
    06:00 +10°C° 0 mm 2 m/S 764 mmHg 96%
    07:00 +10°C° 0 mm 2 m/S 764 mmHg 95%
    08:00 +12°C° 0 mm 2 m/S 764 mmHg 91%
    09:00 +13°C° 0 mm 2 m/S 764 mmHg 87%
    10:00 +13°C° 0 mm 3 m/S 764 mmHg 83%
    11:00 +14°C° 0 mm 3 m/S 764 mmHg 79%
    12:00 +16°C° 0 mm 3 m/S 764 mmHg 75%
    13:00 +16°C° 0 mm 3 m/S 763 mmHg 70%
    14:00 +16°C° 0 mm 3 m/S 763 mmHg 73%
    15:00 +16°C° 0 mm 3 m/S 763 mmHg 76%
    16:00 +14°C° 0 mm 3 m/S 763 mmHg 79%
    17:00 +14°C° 0 mm 3 m/S 763 mmHg 83%
    18:00 +13°C° 0 mm 3 m/S 763 mmHg 87%
    19:00 +12°C° 0 mm 3 m/S 763 mmHg 91%
    20:00 +12°C° 0 mm 3 m/S 763 mmHg 91%
    21:00 +12°C° 0 mm 3 m/S 762 mmHg 92%
    22:00 +12°C° 0 mm 3 m/S 762 mmHg 92%
    23:00 +12°C° 0 mm 3 m/S 762 mmHg 91%

    27 Oktober, Freitag

    Zeit Temperatur Niederschläge Wind Luftdruck Luftfeuchtigkeit
    00:00 +12°C° 0 mm 3 m/S 762 mmHg 89%
    01:00 +12°C° 0 mm 3 m/S 761 mmHg 88%
    02:00 +12°C° 0,4 mm 4 m/S 761 mmHg 89%
    03:00 +11°C° 0,4 mm 4 m/S 761 mmHg 89%
    04:00 +11°C° 0,4 mm 4 m/S 760 mmHg 90%
    05:00 +11°C° 0,3 mm 4 m/S 760 mmHg 90%
    06:00 +11°C° 0,3 mm 4 m/S 759 mmHg 90%
    07:00 +10°C° 0,3 mm 4 m/S 759 mmHg 89%
    08:00 +10°C° 0,1 mm 5 m/S 759 mmHg 86%
    09:00 +10°C° 0,1 mm 5 m/S 759 mmHg 83%
    10:00 +11°C° 0,1 mm 6 m/S 759 mmHg 79%
    11:00 +11°C° 0,3 mm 6 m/S 759 mmHg 76%
    12:00 +11°C° 0,3 mm 6 m/S 759 mmHg 72%
    13:00 +12°C° 0,3 mm 7 m/S 758 mmHg 69%
    14:00 +11°C° 0,1 mm 6 m/S 758 mmHg 70%
    15:00 +11°C° 0,1 mm 6 m/S 758 mmHg 71%
    16:00 +10°C° 0,1 mm 5 m/S 758 mmHg 71%
    17:00 +10°C° 0 mm 5 m/S 759 mmHg 75%
    18:00 +9°C° 0 mm 5 m/S 759 mmHg 79%
    19:00 +9°C° 0 mm 5 m/S 759 mmHg 83%
    20:00 +8°C° 0 mm 5 m/S 760 mmHg 84%
    21:00 +8°C° 0 mm 5 m/S 760 mmHg 86%
    22:00 +8°C° 0 mm 4 m/S 760 mmHg 87%
    23:00 +8°C° 0 mm 4 m/S 760 mmHg 89%

    28 Oktober, Samstag

    Zeit Temperatur Niederschläge Wind Luftdruck Luftfeuchtigkeit
    00:00 +7°C° 0 mm 4 m/S 760 mmHg 90%
    01:00 +8°C° 0 mm 3 m/S 761 mmHg 91%
    02:00 +8°C° 0 mm 3 m/S 760 mmHg 91%
    03:00 +7°C° 0 mm 4 m/S 760 mmHg 90%
    04:00 +7°C° 0 mm 4 m/S 760 mmHg 90%
    05:00 +7°C° 0,1 mm 4 m/S 760 mmHg 89%
    06:00 +7°C° 0,1 mm 4 m/S 760 mmHg 88%
    07:00 +7°C° 0,1 mm 4 m/S 759 mmHg 87%
    08:00 +8°C° 0,1 mm 4 m/S 759 mmHg 83%
    09:00 +8°C° 0,1 mm 4 m/S 759 mmHg 80%
    10:00 +9°C° 0,1 mm 5 m/S 758 mmHg 76%
    11:00 +9°C° 0,1 mm 5 m/S 758 mmHg 74%
    12:00 +9°C° 0,1 mm 5 m/S 757 mmHg 71%
    13:00 +9°C° 0,1 mm 5 m/S 756 mmHg 69%
    14:00 +9°C° 0 mm 5 m/S 755 mmHg 70%
    15:00 +9°C° 0 mm 5 m/S 755 mmHg 71%
    16:00 +8°C° 0 mm 5 m/S 754 mmHg 72%
    17:00 +8°C° 0,1 mm 5 m/S 753 mmHg 75%
    18:00 +8°C° 0,1 mm 6 m/S 752 mmHg 77%
    19:00 +8°C° 0,1 mm 6 m/S 752 mmHg 79%
    20:00 +8°C° 0,3 mm 6 m/S 751 mmHg 81%
    21:00 +8°C° 0,3 mm 7 m/S 750 mmHg 82%
    22:00 +8°C° 0,3 mm 7 m/S 750 mmHg 83%
    23:00 +6°C° 0,3 mm 7 m/S 749 mmHg 82%

    29 Oktober, Sonntag

    Zeit Temperatur Niederschläge Wind Luftdruck Luftfeuchtigkeit
    00:00 +7°C° 0,3 mm 6 m/S 749 mmHg 81%
    01:00 +7°C° 0,3 mm 6 m/S 748 mmHg 80%
    02:00 +5°C° 0,1 mm 6 m/S 748 mmHg 79%
    03:00 +5°C° 0,1 mm 6 m/S 749 mmHg 79%
    04:00 +4°C° 0,1 mm 6 m/S 749 mmHg 79%
    05:00 +4°C° 0 mm 6 m/S 749 mmHg 78%
    06:00 +5°C° 0 mm 5 m/S 750 mmHg 77%
    07:00 +5°C° 0 mm 5 m/S 750 mmHg 77%
    08:00 +4°C° 0 mm 6 m/S 751 mmHg 70%
    09:00 +5°C° 0 mm 6 m/S 751 mmHg 64%
    10:00 +6°C° 0 mm 7 m/S 752 mmHg 58%
    11:00 +8°C° 0 mm 7 m/S 752 mmHg 55%
    12:00 +8°C° 0 mm 7 m/S 753 mmHg 52%
    13:00 +9°C° 0 mm 8 m/S 753 mmHg 49%
    14:00 +8°C° 0 mm 7 m/S 754 mmHg 51%
    15:00 +8°C° 0 mm 6 m/S 754 mmHg 53%
    16:00 +7°C° 0 mm 5 m/S 755 mmHg 55%
    17:00 +6°C° 0 mm 4 m/S 755 mmHg 57%
    18:00 +6°C° 0 mm 4 m/S 756 mmHg 60%
    19:00 +5°C° 0 mm 4 m/S 756 mmHg 63%
    20:00 +4°C° 0 mm 3 m/S 757 mmHg 65%
    21:00 +4°C° 0 mm 3 m/S 757 mmHg 68%
    22:00 +4°C° 0 mm 3 m/S 758 mmHg 70%
    23:00 +4°C° 0 mm 3 m/S 758 mmHg 71%

    30 Oktober, Montag

    Zeit Temperatur Niederschläge Wind Luftdruck Luftfeuchtigkeit
    00:00 +4°C° 0 mm 3 m/S 758 mmHg 71%
    01:00 +4°C° 0 mm 3 m/S 758 mmHg 72%
    02:00 +4°C° 0 mm 3 m/S 758 mmHg 73%
    03:00 +5°C° 0 mm 2 m/S 758 mmHg 74%
    04:00 +5°C° 0 mm 2 m/S 758 mmHg 74%
    05:00 +5°C° 0,1 mm 3 m/S 758 mmHg 78%
    06:00 +5°C° 0,1 mm 3 m/S 758 mmHg 81%
    07:00 +5°C° 0,1 mm 3 m/S 758 mmHg 85%
    08:00 +7°C° 0,3 mm 3 m/S 758 mmHg 86%
    09:00 +7°C° 0,3 mm 3 m/S 758 mmHg 87%
    10:00 +8°C° 0,3 mm 3 m/S 759 mmHg 89%
    11:00 +9°C° 0,1 mm 3 m/S 759 mmHg 88%
    12:00 +8°C° 0,1 mm 4 m/S 759 mmHg 87%
    13:00 +10°C° 0,1 mm 4 m/S 759 mmHg 86%
    14:00 +10°C° 0,1 mm 4 m/S 759 mmHg 88%
    15:00 +10°C° 0,1 mm 4 m/S 759 mmHg 89%
    16:00 +10°C° 0,1 mm 3 m/S 759 mmHg 91%
    17:00 +10°C° 0 mm 3 m/S 759 mmHg 92%
    18:00 +10°C° 0 mm 3 m/S 760 mmHg 93%
    19:00 +9°C° 0 mm 3 m/S 760 mmHg 94%
    20:00 +9°C° 0 mm 3 m/S 760 mmHg 94%
    21:00 +10°C° 0 mm 3 m/S 761 mmHg 94%
    22:00 +10°C° 0 mm 3 m/S 761 mmHg 95%
    23:00 +10°C° 0,1 mm 3 m/S 761 mmHg 95%
    Mehr zeigen